Torna al catalogo

SL-14 DEB

AttivoPO
NORAD 19178·DEBRIS·🇷🇺 Russia

Lanciato Oct 26, 1978 da Plesetsk Cosmodrome

Loading…

Prossimi Passaggi (prossime 24 ore)

TLE

AggiornatoSource: Space-Track

Epoca: Sep 13, 2026, 07:46 UTC

1 19178U 78100U   26256.32369466 -.00000084  00000-0 -91998-3 0  9995
2 19178  82.1164   4.1543 0036863 209.5637 176.2329 12.17903252696637

Traccia SL-14 DEB in tempo reale con AllMySat

Download on the App Store